Location: Bruch
(44.2051°N, 0.4120°E)
Time: 07:41:33
(UTC+00:00)

COSMOS 2455 - Pass Details

Date: 29 November 2020
Orbit: 900 x 909 km, 67.1° (Epoch: 26 January)

Event Time Altitude Azimuth Distance (km) Brightness Sun altitude
Rises 05:59:39 0° 206° (SSW) 3,515 5.8 -12.6°
Reaches altitude 10° 06:02:09 10° 206° (SSW) 2,579 5.2 -12.2°
Maximum altitude 06:08:08 83° 119° (ESE) 919 3.0 -11.2°
Drops below altitude 10° 06:14:11 10° 33° (NNE) 2,600 5.4 -10.2°
Sets 06:16:42 0° 32° (NNE) 3,546 6.1 -9.7°
